This is the latest recevied weather packets stored in our database for station/object IW0HP-3. If no packets are shown the sender has not sent any weather packets the latest 10 day(s).
| Time | Temp. | Humidity | Pressure | Rain* | Wind** | Luminosity | Snow |
|---|---|---|---|---|---|---|---|
| 1777885589 | 19.44° C | 45% | 1020.9 hPa | - | - | - | - |
| 1777884385 | 19.44° C | 46% | 1020.9 hPa | - | - | - | - |
| 1777883180 | 18.89° C | 48% | 1021.1 hPa | - | - | - | - |
| 1777881975 | 18.33° C | 53% | 1021.1 hPa | - | - | - | - |
| 1777880770 | 17.78° C | 62% | 1020.9 hPa | - | - | - | - |
| 1777879566 | 17.22° C | 62% | 1020.8 hPa | - | - | - | - |
| 1777878361 | 16.67° C | 62% | 1020.7 hPa | - | - | - | - |
| 1777877156 | 16.11° C | 62% | 1020.7 hPa | - | - | - | - |
| 1777875951 | 15.56° C | 63% | 1020.6 hPa | - | - | - | - |
| 1777874747 | 15° C | 64% | 1020.6 hPa | - | - | - | - |
| 1777873542 | 15° C | 65% | 1020.5 hPa | - | - | - | - |
| 1777872337 | 14.44° C | 66% | 1020.5 hPa | - | - | - | - |
| 1777871132 | 14.44° C | 67% | 1020.4 hPa | - | - | - | - |
| 1777869928 | 13.89° C | 70% | 1020.4 hPa | - | - | - | - |
| 1777868722 | 13.89° C | 70% | 1020.3 hPa | - | - | - | - |
| 1777867517 | 13.89° C | 70% | 1020.1 hPa | - | - | - | - |
| 1777866313 | 13.89° C | 69% | 1019.9 hPa | - | - | - | - |
| 1777865108 | 14.44° C | 69% | 1019.9 hPa | - | - | - | - |
| 1777863903 | 13.89° C | 69% | 1019.8 hPa | - | - | - | - |
| 1777862699 | 14.44° C | 69% | 1019.9 hPa | - | - | - | - |
| 1777861494 | 14.44° C | 68% | 1019.7 hPa | - | - | - | - |
| 1777859085 | 15° C | 68% | 1019.7 hPa | - | - | - | - |
| 1777857879 | 15° C | 69% | 1019.7 hPa | - | - | - | - |
| 1777855470 | 15° C | 68% | 1019.7 hPa | - | - | - | - |
| 1777854265 | 15.56° C | 67% | 1019.7 hPa | - | - | - | - |
* Rain since midnight (hover to see other rain measurements)
** Current wind speed in m/s (hover to see current wind gust speed)